User: anonymous   Login
Location: Unspecified
(38.7273°N, 77.0677°W)
Time: 08:27:27
(UTC-04:00)
Language:

Oscar 19 - Orbit

View from above orbital plane
View from above orbital plane
View from above satellite
View from above satellite

Ground track
Ground track

The orbit data is extracted from the following two-line orbital elements,

1 20442U 90005G   21263.86643075  .00000004  00000-0  17955-4 0  9994
2 20442  98.7510 220.2444 0010737 238.2962 121.7176 14.32997526654493
Epoch (UTC): 20 September 2021 20:47:39
Eccentricity: 0.0010737
inclination: 98.7510°
perigee height: 774 km
apogee height: 789 km
right ascension of ascending node: 220.2444°
argument of perigee: 238.2962°
revolutions per day: 14.32997526
mean anomaly at epoch: 121.7176°
orbit number at epoch: 65449

The dashed part of the orbit path shows where the satellite is in the earth's shadow,  

DLR